Theta_e
308 310 313 314 315 316 318 319 320 320 320 321 321 320 320 319 318 317 313 310 309 308 307 307 308 307 305 300 296 297 298 298 300 301 300 299 297 295 294 294 293 293 292 292 293 293 292 291 291 290 291 290 289 289 289 289 289 290 290 290 289 289 289 288 286 287 289 291 289 289 290 289 288 289 288 288 288 289 288 289 289 288 288 288 288
306 307 308 310 312 314 316 317 318 319 318 318 317 317 318 317 316 311 309 309 307 307 306 304 303 302 301 299 298 298 296 297 297 298 297 296 294 294 293 293 292 291 291 290 291 292 291 289 288 289 290 289 289 288 288 288 288 288 288 288 288 288 288 286 287 286 286 289 288 289 289 289 286 289 287 286 287 288 287 288 288 288 288 288 287
307 307 307 308 309 312 314 314 314 314 315 314 314 314 314 312 310 308 306 303 303 304 303 302 300 299 297 296 298 298 296 295 295 295 294 293 292 292 293 292 291 291 290 290 290 290 290 289 288 288 288 288 287 287 288 287 288 288 287 287 287 287 287 287 286 285 286 286 288 287 287 287 286 286 287 287 287 287 286 286 287 287 287 287 286
306 307 307 308 309 310 310 311 311 311 311 309 310 308 305 303 302 304 303 301 301 300 301 299 298 297 296 296 297 297 294 293 293 293 292 292 291 291 291 292 291 291 290 289 289 289 288 287 287 287 287 287 286 286 287 287 287 287 286 286 287 286 286 286 286 285 285 284 286 286 286 285 286 287 287 287 286 285 286 286 287 286 286 286 286
306 306 306 306 307 308 308 307 308 308 307 304 304 302 301 301 300 300 299 299 300 299 298 298 298 298 298 299 298 295 293 292 292 292 292 292 291 291 291 291 291 290 289 289 287 288 288 287 287 287 287 286 286 286 286 286 286 286 286 286 286 286 286 286 285 285 284 284 284 286 286 286 286 286 287 284 284 285 286 285 285 285 285 286 286
304 304 303 303 303 303 304 303 304 304 303 302 300 300 299 299 299 298 299 299 295 295 297 296 296 298 299 299 297 294 292 292 292 291 291 291 290 290 290 290 289 289 288 288 288 288 287 287 286 286 286 286 286 286 286 285 285 285 285 285 285 285 285 285 285 284 284 284 284 284 285 285 284 285 286 284 283 282 283 284 284 285 284 284 284
302 302 301 302 301 300 300 301 302 302 300 300 297 297 297 296 296 296 296 296 295 294 294 295 295 296 296 296 296 294 292 291 291 290 290 289 289 289 288 288 288 287 287 287 287 287 286 286 286 286 287 287 286 286 285 285 285 285 285 285 285 284 285 285 284 284 284 283 284 284 284 285 284 283 284 284 284 283 281 280 280 283 283 283 282
301 300 299 299 300 299 299 299 299 299 297 295 295 294 294 294 294 294 294 294 294 294 294 295 294 296 298 298 294 292 291 290 290 289 289 289 288 288 287 287 286 286 286 286 286 285 286 286 286 286 286 286 286 286 286 285 285 285 285 285 285 284 284 284 283 283 283 283 283 283 283 283 283 284 284 283 281 281 282 280 278 279 280 281 281
301 300 299 298 298 298 295 295 295 294 293 293 293 293 293 293 292 292 292 293 294 293 293 293 292 292 292 291 290 290 290 290 289 288 288 288 288 287 287 286 286 285 285 285 285 285 285 285 285 286 285 284 284 285 285 285 285 284 284 285 285 284 284 283 283 283 283 282 282 283 282 282 282 281 280 280 279 279 280 280 279 279 279 279 280
300 300 298 298 297 295 294 293 293 293 293 293 293 292 292 291 291 291 291 291 291 292 293 292 292 292 290 288 289 289 289 289 287 287 288 288 288 287 287 286 286 285 284 284 284 284 285 285 284 282 282 282 282 283 283 283 283 285 284 285 284 283 282 281 282 282 281 281 281 280 280 280 280 280 280 280 280 280 279 279 277 278 278 278 279
298 299 300 298 295 294 293 292 292 292 291 292 292 291 291 291 291 291 290 290 289 288 289 289 289 289 289 288 288 288 288 287 286 288 289 288 288 287 286 286 286 285 284 284 283 284 284 284 283 282 282 282 282 282 283 283 283 283 283 283 283 283 281 280 281 281 280 280 280 280 279 279 280 280 280 280 280 279 278 278 277 277 276 275 274
298 297 298 297 295 293 293 292 292 292 291 291 290 290 290 289 290 290 289 288 287 287 288 288 287 287 287 288 287 287 287 286 288 288 288 288 287 287 287 286 285 285 285 284 284 283 283 283 282 282 282 283 283 283 282 283 283 283 283 282 281 281 282 281 280 280 280 279 279 279 279 279 279 280 279 279 278 278 278 277 277 276 275 274 275
298 297 295 295 295 294 293 292 292 291 292 291 290 289 288 288 288 287 287 287 286 286 287 287 286 287 287 287 287 287 287 287 288 288 288 288 287 287 287 286 285 285 285 284 284 283 283 282 281 281 282 281 282 283 282 282 282 282 281 280 280 280 280 281 281 281 280 279 278 278 279 279 278 279 280 279 279 276 276 276 276 276 276 275 275
297 296 295 293 293 294 294 293 292 291 290 289 288 287 288 288 288 287 287 286 286 286 286 286 286 286 287 288 287 287 287 287 288 288 287 287 287 287 287 286 286 285 284 284 284 283 282 282 281 281 281 282 282 282 282 282 282 282 281 281 281 280 280 280 279 279 280 280 279 278 280 280 279 280 280 279 277 275 275 275 276 275 275 274 276
297 297 296 295 294 292 292 292 293 292 290 288 288 287 288 287 286 286 286 286 286 285 286 285 286 287 287 287 288 288 288 288 288 288 287 287 287 286 286 286 285 284 284 283 283 283 282 282 282 282 281 281 282 282 282 282 281 280 279 279 280 281 280 280 280 280 280 281 281 281 280 281 280 279 279 279 278 278 277 276 276 276 276 276 277
297 296 296 295 294 293 291 291 291 291 290 289 288 287 287 287 286 286 286 286 286 286 286 286 286 286 287 288 287 286 287 288 288 287 287 287 286 285 285 284 284 283 282 282 282 282 282 282 282 281 281 281 282 282 283 283 281 279 278 279 279 279 279 280 280 281 281 281 280 279 279 279 279 279 279 279 278 278 278 278 277 276 275 273 273
296 296 294 294 294 295 294 292 290 289 288 287 287 287 287 286 286 285 285 285 285 285 285 286 286 286 286 287 287 287 287 287 287 287 287 287 285 284 284 283 283 282 282 281 281 281 281 281 281 281 281 281 282 283 284 282 280 278 278 277 277 276 277 279 280 280 279 278 277 277 277 278 278 278 278 279 278 278 276 275 274 274 272 271 272
295 295 295 295 295 294 294 293 290 288 287 287 287 287 286 286 285 285 285 285 284 285 285 285 286 286 286 286 287 286 286 286 287 287 287 286 284 284 283 283 282 281 281 281 281 281 280 280 281 281 281 281 282 284 283 282 279 278 277 276 274 275 277 279 279 278 277 275 275 275 275 275 276 276 277 277 277 277 275 272 273 273 272 272 271
294 294 295 296 295 294 293 291 289 288 287 287 287 286 285 285 285 285 285 285 285 285 285 285 285 286 286 286 285 286 286 285 287 287 286 286 284 284 283 283 281 281 280 280 280 280 279 280 280 281 281 282 283 284 283 281 279 278 277 275 274 275 277 278 276 274 273 272 273 274 274 274 275 275 276 276 276 276 276 275 275 273 272 272 272
294 296 296 295 294 292 290 288 288 288 287 287 287 286 285 285 284 284 284 284 284 284 284 285 284 285 285 285 285 286 285 285 286 287 286 285 284 283 283 282 281 280 280 280 279 279 279 280 280 281 282 283 283 283 282 281 280 278 277 276 276 275 278 275 274 273 271 271 271 272 273 274 274 274 275 275 275 276 275 276 275 274 273 272 272
294 295 295 294 292 291 290 289 288 287 287 287 287 286 285 284 283 284 283 284 283 283 283 283 283 283 284 284 285 285 285 285 285 286 286 285 284 283 283 283 282 281 280 279 279 278 278 279 279 281 283 283 283 282 281 281 280 278 277 277 277 277 276 272 271 272 270 270 270 272 273 274 273 274 274 274 275 275 275 276 275 275 274 273 272
292 293 293 292 290 288 288 288 287 287 287 286 285 284 284 284 283 283 283 283 282 281 281 282 282 282 283 283 284 285 285 285 285 285 285 285 284 284 283 283 282 281 280 279 279 279 279 279 278 280 283 282 282 281 281 280 280 277 278 278 277 276 272 271 271 271 271 271 272 272 272 272 272 273 273 273 274 274 274 274 275 275 275 275 274
290 290 289 289 288 287 287 286 286 286 285 285 284 283 283 282 282 282 282 281 280 280 280 280 281 281 281 282 283 284 284 284 284 284 284 285 284 284 283 282 283 281 280 279 279 279 279 279 279 280 282 282 281 281 280 280 278 277 278 277 276 274 272 271 270 270 271 271 271 271 271 271 271 272 272 272 273 273 273 274 274 275 275 276 277
287 287 286 286 285 285 285 285 285 285 284 284 284 283 281 281 281 281 281 281 280 279 280 280 280 280 280 281 281 283 283 284 284 283 284 284 285 284 283 283 283 281 281 280 280 279 278 278 279 281 281 280 280 280 280 278 277 278 277 275 273 272 270 270 270 270 269 270 270 270 271 271 271 271 272 272 272 272 272 272 273 274 275 275 275
285 285 285 285 284 284 283 284 284 284 283 284 283 282 281 281 280 281 281 281 281 280 280 280 280 280 280 280 281 281 282 283 283 283 283 283 284 284 284 283 283 281 279 280 279 279 279 280 280 281 280 280 280 279 278 277 277 276 275 273 271 270 270 269 269 269 269 270 270 270 270 270 271 271 271 271 271 271 273 274 275 276 276 275 274
284 284 284 283 283 282 282 282 282 282 282 283 283 283 281 281 281 281 280 280 281 280 280 279 279 279 280 280 280 280 281 282 282 283 283 283 283 284 284 283 282 281 280 279 278 279 280 280 281 280 279 278 277 275 274 274 274 274 272 270 269 269 269 269 269 269 269 269 269 268 269 270 270 271 270 270 271 272 273 273 273 274 274 272 271
283 283 282 282 281 281 282 282 282 281 281 282 283 283 282 281 281 280 280 281 280 280 280 279 279 279 279 280 280 279 279 280 281 282 282 282 282 283 282 282 282 281 278 278 278 279 280 279 279 278 277 277 275 273 273 273 271 270 269 269 269 268 268 268 268 268 268 268 268 269 269 270 270 270 270 271 271 272 273 273 273 272 272 271 270
283 282 281 281 281 281 282 278 280 281 281 281 282 282 281 281 281 281 280 281 280 280 280 279 279 279 279 279 279 278 278 279 280 280 281 281 282 282 282 281 281 279 277 277 278 279 278 278 277 275 274 273 271 270 269 269 268 268 268 268 267 268 268 268 268 268 267 268 267 268 268 269 268 269 269 270 271 271 273 273 272 271 271 270 269
281 280 280 280 280 280 281 280 281 281 280 280 281 282 281 281 281 282 282 283 282 281 280 280 280 280 280 280 279 277 277 277 278 281 281 282 281 281 281 280 280 279 278 278 275 274 274 273 270 269 269 268 268 268 268 267 267 266 265 266 267 267 267 267 266 267 267 266 266 267 267 267 268 269 269 269 270 271 272 272 272 271 270 270 268
280 279 279 280 280 279 280 280 280 280 280 280 279 279 278 280 281 281 281 282 282 282 282 281 281 281 280 281 280 279 278 279 280 281 282 282 283 283 282 281 281 278 279 279 274 271 271 269 269 269 269 268 268 268 268 268 267 266 266 267 267 266 266 266 266 266 266 266 266 266 266 267 267 268 268 268 269 270 271 272 270 270 269 268 267
281 280 278 279 279 279 279 280 279 279 279 279 279 279 279 279 279 280 280 281 281 281 281 281 281 282 281 280 281 281 280 279 280 281 281 282 283 283 283 282 282 280 280 275 272 270 270 269 269 268 268 269 268 268 268 267 267 266 266 266 266 265 266 266 266 266 265 266 266 266 266 266 266 267 267 267 268 269 270 272 271 270 269 268 267
282 281 280 279 278 278 279 279 279 278 279 279 279 279 279 279 279 279 280 280 280 281 281 281 281 282 282 282 281 280 281 281 280 281 281 282 283 283 283 282 282 281 281 277 270 270 269 269 268 268 268 268 268 268 268 267 266 266 266 265 265 265 264 265 266 265 265 265 265 266 266 266 266 267 267 267 268 268 269 270 270 269 268 268 268
280 280 279 278 278 277 278 278 278 278 278 277 277 278 278 278 278 279 279 280 280 280 280 281 281 282 282 282 282 281 280 280 281 281 281 282 282 282 283 282 282 281 280 274 272 271 270 270 269 268 268 267 268 267 267 266 266 265 265 265 265 265 265 265 265 264 264 265 265 265 266 266 266 266 267 267 267 267 269 269 269 269 268 267 267
277 279 279 278 278 278 278 278 278 278 278 278 278 278 278 278 279 279 279 278 278 279 280 281 281 281 282 282 282 282 281 281 281 281 282 282 282 282 282 281 282 282 279 273 272 271 271 270 270 269 268 268 268 267 266 265 264 264 264 264 265 265 264 264 263 263 264 265 265 265 266 266 266 265 265 266 267 268 268 269 269 268 266 266 266
276 274 272 275 278 278 278 278 278 278 278 277 277 277 277 277 277 277 278 278 278 278 278 279 280 281 281 281 282 282 282 281 282 282 282 282 282 283 282 279 278 278 278 275 273 272 270 269 270 269 268 267 267 267 265 264 264 263 263 263 263 263 263 263 263 264 264 265 265 265 265 265 265 265 265 265 266 266 268 268 268 268 266 265 266
275 278 277 275 277 278 278 278 278 277 277 277 277 277 277 276 276 276 277 277 277 277 278 279 280 281 281 281 282 282 282 282 282 282 282 282 282 283 278 277 277 276 276 275 272 271 270 269 268 269 268 267 267 266 266 265 264 264 264 263 263 262 262 263 263 264 264 265 264 264 264 264 265 265 265 265 265 265 267 268 268 267 266 265 266
276 276 277 277 276 277 277 276 276 276 276 276 276 276 275 275 275 276 276 276 276 277 277 278 278 277 279 279 280 281 281 282 282 282 282 283 283 281 279 278 277 276 275 274 272 271 270 269 268 268 267 266 266 266 265 265 264 263 263 263 263 262 263 263 264 264 264 264 264 264 263 263 263 264 264 263 265 266 267 267 268 267 266 265 264
272 274 275 274 274 274 274 275 275 273 274 275 275 275 275 275 275 275 275 275 276 276 276 276 277 277 277 277 279 279 279 281 282 282 282 282 281 280 279 278 276 276 275 274 272 271 270 269 268 267 267 266 266 266 265 264 264 263 262 262 262 262 263 263 264 264 264 263 263 264 263 263 263 263 263 263 264 265 266 267 267 267 266 265 264
272 271 270 271 273 274 275 274 274 274 274 274 274 274 273 274 274 274 274 275 274 275 275 276 276 276 277 278 277 278 278 278 279 278 279 280 280 280 279 277 276 274 273 272 271 270 271 269 268 267 267 266 265 265 264 264 263 262 262 262 262 262 262 263 263 263 263 263 263 264 263 263 263 263 263 263 263 264 265 266 267 266 266 265 265
272 273 271 270 272 273 273 272 273 273 273 273 273 273 273 273 273 273 274 274 274 274 274 275 275 275 276 277 276 277 276 276 278 278 278 278 278 279 278 276 275 274 272 272 271 271 270 269 267 266 266 266 265 265 264 263 263 262 262 262 261 261 262 262 263 263 263 263 263 263 263 262 263 263 263 263 263 264 265 265 266 266 266 265 265
272 271 269 271 271 271 271 271 272 272 272 272 273 273 273 272 273 273 273 273 273 273 274 274 275 275 276 275 277 277 276 276 277 277 277 277 277 277 277 276 274 274 272 271 271 270 270 268 267 266 266 266 265 264 263 263 262 262 261 261 261 261 261 262 262 263 263 263 263 263 262 262 262 262 261 262 264 264 264 265 266 266 266 265 265
270 270 270 270 269 270 271 270 271 269 270 270 271 271 271 272 272 272 272 272 272 272 273 273 274 275 275 275 275 276 276 276 276 276 277 277 276 276 276 275 274 273 273 272 272 271 270 269 267 266 265 265 264 263 262 262 262 261 261 261 261 261 261 261 262 262 262 262 262 262 262 262 262 262 262 263 262 263 263 264 265 265 265 265 265
267 269 269 269 269 269 270 270 270 270 270 270 270 269 270 270 270 271 271 271 271 271 272 272 273 273 274 274 274 275 275 275 272 275 276 276 276 275 275 275 274 273 273 273 273 271 270 269 267 266 265 264 264 263 262 262 262 261 261 261 261 261 261 261 261 261 262 262 262 262 262 262 262 261 261 261 262 262 262 263 263 264 264 264 264
267 267 268 267 268 268 268 268 268 269 269 268 268 269 269 269 270 270 270 270 270 271 271 271 272 272 272 273 273 273 273 274 274 274 274 275 275 275 274 274 273 272 272 272 271 270 269 268 267 266 265 264 264 263 263 262 262 261 261 261 261 260 261 260 261 261 262 262 262 262 262 262 262 261 261 261 261 261 261 262 263 263 263 263 263
266 266 267 267 267 267 267 267 267 267 267 267 268 268 268 269 269 269 269 269 269 270 270 270 271 271 271 271 272 272 272 273 273 273 273 274 274 274 274 274 273 272 271 271 271 269 269 268 267 265 264 264 263 262 262 262 262 262 262 262 261 260 260 260 261 262 262 262 262 262 262 262 261 261 261 261 260 260 261 261 262 262 262 263 263
265 265 265 266 266 266 266 266 266 266 266 267 267 267 268 268 268 268 268 268 269 269 269 269 270 270 270 270 271 271 271 271 271 272 272 273 273 273 273 273 273 272 271 270 270 268 267 267 266 265 263 262 262 262 262 262 262 262 262 262 262 262 262 262 262 262 262 262 262 262 262 262 262 261 261 261 261 261 260 260 261 262 262 262 263
263 264 264 265 265 265 265 265 265 265 266 266 266 266 266 267 267 267 267 267 267 268 268 268 269 269 269 270 270 270 270 270 270 270 271 271 271 272 272 272 271 270 269 268 267 266 265 265 265 265 264 263 261 260 261 261 260 261 261 261 261 261 261 262 261 261 262 262 262 262 262 262 262 261 261 260 260 260 260 260 260 260 261 262 262
263 263 264 263 263 264 264 264 264 264 265 265 265 265 266 266 266 266 267 267 267 267 267 267 268 268 268 269 269 269 269 270 270 270 270 270 270 271 270 269 269 269 268 266 266 265 264 264 264 264 263 262 261 260 260 260 260 260 260 260 260 260 260 260 260 261 261 261 262 262 262 262 262 261 261 260 259 260 259 259 260 260 261 261 262
262 263 263 263 263 263 263 264 263 264 264 264 264 264 265 265 265 266 266 266 266 266 267 267 267 267 267 268 268 268 268 268 268 269 269 269 269 270 269 269 268 267 267 266 265 264 263 263 262 263 262 262 261 260 260 259 259 259 259 259 259 259 259 259 259 260 260 260 261 261 261 261 261 261 260 260 259 259 259 259 259 259 259 260 261
262 262 262 262 262 263 263 263 263 263 263 263 263 263 264 264 264 264 264 265 265 265 266 266 266 266 266 266 266 267 267 267 267 268 268 268 269 269 269 268 266 266 266 265 264 264 263 262 262 262 262 261 261 260 260 259 259 259 259 259 259 259 258 258 259 258 259 259 259 260 260 260 261 260 260 259 259 258 258 258 258 258 259 259 259
261 261 261 261 261 261 262 261 261 262 262 262 262 262 262 262 263 263 263 263 263 264 264 265 265 265 265 266 266 266 266 266 267 267 267 267 267 268 267 267 266 265 264 264 264 263 262 261 261 261 261 260 260 260 259 259 259 258 259 259 259 259 259 258 258 258 258 258 259 259 259 259 260 259 259 259 258 257 257 257 257 257 258 258 259
Wind_Speed
5 6 6 7 7 9 8 8 8 7 8 9 9 9 10 9 9 9 8 9 9 9 9 9 9 11 12 11 12 8 8 8 8 8 6 7 6 7 8 7 8 6 7 6 5 6 6 7 6 5 5 5 4 4 3 3 2 2 1 1 2 2 2 3 4 5 4 1 3 5 6 6 7 7 8 8 8 8 9 8 9 9 9 10 12
5 5 6 7 8 8 8 7 8 8 8 8 9 9 9 9 9 7 9 9 9 10 11 9 7 8 11 10 10 10 7 7 7 7 7 7 7 5 7 8 8 8 7 8 7 5 6 7 6 6 4 5 5 4 3 3 2 2 2 2 2 2 2 2 3 3 5 3 4 5 6 6 8 7 9 11 11 9 10 9 7 7 8 10 11
4 5 5 6 7 8 8 6 5 6 8 7 8 8 7 6 6 8 8 7 5 7 7 10 12 9 10 11 10 9 7 7 6 7 7 8 9 7 6 8 9 9 9 8 8 7 7 7 7 6 4 5 5 4 3 3 2 2 2 1 2 2 2 2 2 3 5 5 4 5 6 7 7 9 10 8 9 10 11 8 7 7 7 10 11
5 5 6 6 7 7 8 5 6 7 7 6 6 4 4 4 4 5 6 7 8 7 8 8 10 11 11 10 9 8 6 7 7 7 9 9 9 9 8 7 7 8 8 8 8 7 7 8 6 6 6 6 5 4 3 3 2 2 2 1 2 1 1 1 2 3 3 5 4 5 6 8 7 8 8 8 10 10 9 8 7 7 8 9 11
5 6 6 7 7 6 6 5 6 6 6 4 5 5 5 6 6 7 8 8 9 10 10 8 10 12 11 11 10 7 8 9 9 8 7 6 8 8 8 7 7 7 7 7 7 7 7 7 8 7 6 6 5 4 4 4 3 2 2 2 1 1 1 2 2 2 4 5 6 5 6 6 6 7 8 11 12 10 7 7 8 8 8 9 10
5 5 4 5 5 5 5 5 6 6 6 5 6 7 7 7 8 8 9 10 8 6 8 10 7 9 11 11 11 11 9 9 9 9 8 7 7 7 7 7 7 7 7 6 6 5 6 7 7 6 6 6 6 5 5 5 3 2 2 1 1 2 2 2 2 2 3 4 6 7 5 7 7 6 8 10 12 14 14 11 6 3 8 10 10
5 5 5 5 5 5 5 6 6 5 5 5 4 5 5 5 6 7 5 7 9 8 6 7 7 7 9 10 11 12 9 9 8 8 8 7 8 8 8 8 8 6 6 6 6 6 6 6 6 6 5 5 6 6 6 5 3 3 2 2 1 2 2 1 2 3 3 5 5 5 6 5 6 8 8 8 9 8 12 16 17 13 9 8 12
5 5 4 5 5 5 6 4 4 4 3 3 4 3 3 4 4 4 6 7 8 9 11 10 8 7 9 11 10 9 9 8 8 8 7 7 8 8 8 8 8 7 7 6 6 6 6 6 6 5 5 5 5 6 5 5 4 4 3 2 2 2 1 1 2 2 3 4 5 6 5 7 6 5 7 8 9 7 7 11 14 16 16 13 10
6 5 5 6 6 5 3 2 2 3 3 3 4 4 4 4 5 5 6 6 6 7 7 7 9 8 6 7 9 7 7 7 6 8 9 8 8 9 9 9 9 9 8 7 6 6 6 5 5 5 5 6 5 4 4 2 3 4 3 2 2 1 0 1 1 1 2 3 4 4 5 6 6 8 9 9 9 10 12 13 13 12 13 14 12
6 6 6 6 5 4 4 4 3 3 4 5 5 5 5 6 6 6 6 5 6 7 7 6 7 10 11 9 7 6 5 4 9 14 12 10 9 7 7 8 8 9 9 8 7 6 6 5 5 9 8 8 8 8 7 4 1 1 2 2 2 1 1 1 1 1 2 3 3 4 5 5 7 7 8 8 9 11 11 11 12 13 13 13 12
6 6 7 6 5 4 4 4 5 4 4 5 4 5 6 6 6 6 7 8 7 7 7 8 9 9 10 11 10 6 6 7 14 12 12 14 11 9 9 9 8 8 8 8 9 8 7 6 7 7 7 7 7 8 7 7 6 5 4 3 2 1 2 1 1 1 1 3 3 4 4 6 6 7 7 9 9 10 10 11 11 12 12 14 15
8 7 5 5 5 5 4 4 5 5 5 6 6 5 5 5 5 6 6 6 5 5 7 8 8 8 6 7 8 8 7 11 15 15 14 13 10 9 8 8 8 7 8 8 7 8 8 7 6 6 6 7 7 7 7 7 7 5 5 4 3 1 1 1 1 1 2 2 3 4 4 5 6 6 7 9 10 10 9 9 9 10 12 12 12
7 7 6 5 5 6 6 6 5 5 6 6 6 6 5 6 5 5 6 5 6 8 10 9 9 5 8 9 8 8 7 13 15 16 15 14 12 10 8 8 8 8 8 8 8 8 8 7 7 5 5 7 6 6 6 6 6 6 5 4 3 2 2 2 3 2 2 3 4 5 5 5 6 7 7 9 9 10 10 9 9 10 10 11 12
7 7 6 6 6 6 7 7 7 6 6 5 5 5 5 6 5 4 4 5 7 7 7 9 8 8 8 9 8 8 8 14 16 16 16 15 13 9 8 8 7 7 8 7 7 8 8 8 8 7 7 8 6 7 6 6 7 6 5 4 3 4 4 4 3 3 4 4 4 5 6 6 7 8 8 8 8 9 9 11 11 12 11 11 13
7 6 7 7 7 6 6 7 8 8 8 6 5 5 5 4 5 4 5 6 7 7 7 5 5 6 6 6 8 8 7 16 16 17 17 17 14 8 7 7 6 7 6 6 7 7 8 7 7 8 9 8 7 8 8 7 6 4 4 3 3 3 2 3 3 3 3 4 5 6 7 6 6 7 7 7 7 7 8 10 11 12 13 14 12
8 7 6 7 7 8 8 7 6 7 6 6 7 7 7 6 7 5 5 3 2 2 2 3 6 5 4 6 6 7 9 16 16 17 17 16 15 6 7 8 7 7 6 6 6 6 6 7 7 8 9 8 10 12 8 7 7 6 5 4 3 2 3 2 3 4 3 4 5 6 6 7 8 8 7 7 7 7 8 8 9 9 11 12 11
8 8 7 7 8 9 9 9 8 7 5 6 7 7 7 6 3 4 4 3 4 4 5 5 5 6 8 6 7 8 10 14 16 17 17 18 12 6 7 6 6 7 7 7 6 6 6 7 7 7 8 7 10 11 11 9 7 6 6 5 3 2 3 3 5 6 4 6 7 8 8 8 8 8 8 9 7 7 6 7 7 8 9 12 12
8 7 7 8 9 8 8 8 6 6 6 7 7 6 3 2 4 5 6 7 6 5 5 5 4 4 6 6 7 8 8 13 16 17 18 19 10 8 7 7 7 6 6 6 5 6 6 9 8 7 8 8 11 12 12 9 6 7 6 5 4 4 4 4 3 4 5 5 7 6 6 5 6 7 7 7 7 6 5 6 8 7 9 9 12
7 8 8 8 8 8 8 6 6 7 8 7 6 7 6 6 4 4 2 3 4 5 5 6 6 5 5 5 10 8 8 12 17 18 18 18 11 6 7 7 7 6 6 6 5 5 6 8 10 8 8 9 13 12 12 9 6 7 6 5 5 5 5 4 4 4 3 3 3 2 3 2 3 3 4 7 7 6 5 6 6 7 8 9 10
9 8 8 9 7 7 5 6 6 7 8 7 6 5 3 4 5 4 5 4 6 5 6 6 6 6 6 7 6 7 8 10 14 19 18 17 14 7 7 8 8 8 7 7 7 6 6 7 9 12 11 12 12 11 11 10 7 6 6 5 5 5 3 3 2 2 4 4 4 3 2 2 3 3 3 4 4 5 5 5 6 7 8 9 8
8 9 9 7 7 7 6 6 7 6 5 6 5 5 5 5 5 5 5 3 4 4 4 4 4 4 4 4 5 5 7 9 12 17 17 17 16 11 7 7 7 8 8 7 6 7 7 6 6 12 15 13 11 12 11 11 9 6 5 4 5 3 3 2 2 3 4 5 4 3 2 2 2 3 3 2 3 3 4 5 6 7 7 8 9
6 7 8 8 5 5 5 4 4 4 3 4 5 5 3 4 6 7 5 5 7 6 5 5 6 5 5 5 5 6 7 9 9 15 16 17 17 13 6 7 8 7 7 6 6 6 7 7 7 12 16 13 12 12 11 10 10 5 5 6 5 6 3 2 2 3 4 3 2 2 2 2 2 2 2 3 3 5 5 6 7 7 7 7 8
6 5 4 6 5 6 5 6 6 5 6 5 7 5 5 5 5 4 5 6 8 9 7 6 6 6 5 6 5 5 6 7 9 11 16 16 16 15 10 6 11 5 6 8 8 6 5 6 6 14 16 14 13 12 11 11 9 5 7 7 6 6 4 2 2 3 3 2 2 2 2 2 2 2 2 3 3 4 5 6 7 8 8 9 8
3 3 4 5 5 5 5 5 5 5 5 5 5 6 6 5 5 6 6 7 7 7 7 6 6 6 7 6 6 6 6 6 8 10 12 15 14 14 12 9 12 6 4 4 5 6 6 7 8 15 15 14 13 13 11 11 6 8 9 8 7 5 3 2 3 3 2 2 3 3 3 2 2 3 3 3 4 5 6 8 8 9 7 7 7
3 3 4 4 4 4 4 4 4 4 5 6 6 6 7 7 7 5 6 7 6 7 7 7 7 7 6 6 7 6 6 6 8 10 10 11 14 14 13 13 13 10 5 3 4 4 6 10 12 15 14 14 14 12 10 10 9 9 8 8 6 3 3 3 3 3 3 3 3 2 3 3 2 3 3 5 7 8 8 6 5 5 4 6 7
4 4 2 2 3 5 6 5 4 4 5 4 5 5 7 7 6 6 7 7 7 7 7 7 7 6 7 6 6 6 7 7 7 8 10 11 11 15 14 13 13 12 6 3 6 9 11 12 14 14 13 12 10 8 6 7 9 8 7 6 3 3 3 3 3 3 2 2 2 3 2 2 3 3 4 5 6 5 4 5 4 3 3 4 6
4 3 2 2 3 4 5 4 4 4 4 4 4 4 5 6 6 7 8 7 7 7 6 7 7 7 8 7 6 6 7 8 8 8 10 10 9 9 11 10 12 12 6 5 7 7 10 10 9 11 9 12 9 7 7 7 7 5 4 3 3 3 3 3 2 2 2 2 2 3 3 3 4 4 3 3 5 5 4 4 4 3 3 3 4
3 3 3 3 3 3 3 5 5 4 5 5 5 5 5 6 7 8 9 9 9 9 8 8 9 10 10 8 7 6 7 8 9 10 13 12 10 9 10 8 11 10 7 7 7 7 8 9 9 7 7 7 5 4 4 3 3 3 3 3 3 2 3 3 3 2 2 2 3 3 3 3 4 3 4 5 5 5 4 4 3 3 3 2 3
2 3 2 2 2 2 2 3 3 3 4 4 4 4 6 7 8 6 7 5 5 7 8 8 8 7 7 8 9 8 6 8 13 13 11 13 13 11 13 12 12 10 9 11 7 6 6 7 4 5 5 5 5 5 4 4 4 4 3 3 3 4 4 3 3 3 2 2 3 3 3 3 4 4 4 5 5 5 4 4 4 3 3 2 2
3 2 2 2 2 2 2 2 2 2 3 4 4 4 2 3 4 5 6 7 7 7 4 5 5 5 6 7 7 10 11 8 4 14 15 17 18 15 9 10 13 9 14 20 11 7 8 6 7 7 7 6 6 6 6 5 5 5 4 5 4 3 3 3 3 3 2 3 3 3 3 4 4 4 4 5 5 5 5 5 4 4 3 3 3
2 2 2 2 3 3 2 2 3 2 3 3 3 4 4 4 8 9 5 3 6 9 9 7 6 10 8 6 6 11 10 4 9 16 18 19 22 20 19 20 21 18 21 15 8 7 8 8 8 7 6 6 6 7 6 6 5 5 5 5 4 4 3 3 3 2 2 3 3 3 3 3 4 4 5 5 5 5 5 4 4 3 3 3 3
2 2 2 1 2 3 1 2 2 3 3 3 3 3 4 4 3 8 11 9 9 11 12 12 11 12 13 11 6 5 14 13 11 18 22 23 24 24 23 23 22 22 23 16 7 7 7 8 7 7 7 7 7 5 5 6 5 5 5 5 5 5 5 4 3 3 3 3 3 4 4 3 4 5 5 5 5 5 5 4 3 3 4 3 3
1 1 1 1 1 2 2 2 3 3 3 4 4 4 4 4 5 4 6 10 12 11 12 13 13 12 13 14 14 12 10 12 16 18 22 23 23 23 23 22 22 22 22 12 11 8 11 8 8 7 8 7 7 7 7 6 6 6 6 6 6 6 6 5 5 4 4 4 4 4 4 4 4 5 6 5 5 5 5 4 3 3 3 3 3
1 0 1 2 1 2 2 3 3 3 3 3 3 3 4 4 4 4 3 3 5 8 12 14 14 13 15 16 15 16 15 16 18 19 21 22 23 22 21 16 20 23 21 11 8 10 9 11 12 9 8 5 6 6 6 6 6 6 5 5 5 5 6 5 5 5 4 5 5 4 4 4 5 5 5 5 5 5 5 4 3 3 3 3 3
1 2 4 3 2 2 2 2 3 3 3 3 4 4 4 4 4 4 5 6 5 6 5 7 12 16 11 11 16 16 17 17 17 18 20 21 22 23 20 13 15 15 16 13 11 11 10 12 12 8 6 7 7 6 7 6 6 7 7 7 6 6 6 6 5 5 5 5 5 5 5 5 5 5 5 5 5 4 4 3 3 3 3 4 4
1 1 1 3 2 1 2 2 2 2 3 3 3 3 3 3 3 4 4 5 6 6 5 5 4 8 15 14 12 14 16 16 16 18 18 20 22 24 15 14 11 13 12 12 11 10 8 7 6 7 7 6 5 6 6 7 7 6 6 6 7 7 6 6 6 6 5 5 5 5 5 5 5 5 5 6 7 6 5 4 3 3 3 3 4
0 0 0 0 0 1 1 1 2 2 3 3 3 3 3 3 3 4 4 5 6 6 6 4 1 2 5 6 8 11 14 15 16 17 19 20 24 20 16 13 14 12 11 11 10 10 10 10 8 7 6 7 7 6 6 6 5 5 5 5 5 6 6 6 6 5 6 5 5 5 6 5 5 5 5 5 5 5 5 5 4 4 3 3 5
1 2 1 2 1 1 1 2 2 3 3 3 2 2 3 3 4 4 4 5 6 6 6 6 6 6 6 6 7 6 8 13 15 15 17 19 18 16 16 11 10 10 12 10 11 11 11 11 10 9 8 7 7 7 7 6 6 6 6 5 5 5 7 6 8 7 6 5 6 6 5 6 5 5 5 5 5 5 5 5 4 3 3 3 5
1 1 2 2 2 2 2 2 2 2 2 2 2 3 3 3 3 4 4 5 5 6 5 6 6 6 6 3 4 5 7 7 10 11 12 13 14 15 13 8 11 10 9 8 8 10 11 9 8 7 6 7 7 6 7 6 6 6 6 6 6 6 8 7 8 8 7 7 6 6 6 5 5 5 5 5 5 5 5 5 4 4 3 4 4
1 1 1 2 2 2 2 2 2 2 2 2 3 3 3 4 4 4 4 5 6 6 6 7 7 6 5 4 5 6 8 9 10 11 12 13 11 12 12 11 10 12 11 9 10 11 11 8 7 8 8 8 7 7 7 7 7 6 6 6 6 7 7 7 7 7 8 7 7 7 6 6 5 4 4 5 5 5 6 5 4 4 4 4 5
1 1 2 2 2 2 2 1 2 2 2 2 3 3 4 3 4 4 5 5 6 6 7 7 7 6 5 4 9 11 8 8 8 9 10 10 10 11 12 10 11 12 10 10 11 10 11 10 8 8 8 7 7 7 7 7 6 6 7 6 6 5 6 6 6 7 7 8 8 7 6 6 5 5 5 5 5 5 6 5 4 4 4 5 5
2 2 2 1 1 1 1 2 2 2 3 3 3 4 3 4 4 4 5 5 5 6 7 7 7 6 4 8 12 15 11 9 8 7 8 8 9 11 11 10 10 11 12 11 12 12 11 12 10 8 9 8 7 7 6 7 7 7 7 7 7 7 7 7 7 7 8 8 7 7 7 6 5 5 5 4 4 5 5 4 4 4 4 5 4
2 2 2 2 2 1 2 2 2 2 3 3 4 4 4 4 5 5 5 6 6 6 7 8 7 6 6 8 11 14 10 10 9 9 9 8 8 7 8 10 8 9 10 10 9 8 8 8 6 6 7 8 8 9 9 9 9 8 8 7 7 7 7 6 7 7 8 8 7 8 7 6 6 5 5 4 5 5 5 4 3 4 4 4 4
2 2 2 2 2 2 2 2 2 3 3 4 5 4 4 4 5 5 6 6 6 6 7 7 7 7 6 4 7 9 10 10 9 9 9 8 9 8 8 6 6 9 8 9 8 7 7 8 10 8 5 4 5 6 6 6 7 8 8 8 7 7 7 7 7 8 8 8 8 8 8 7 6 6 5 5 5 5 4 4 4 4 4 4 4
2 3 3 2 2 2 2 2 3 3 4 4 4 4 3 4 5 5 5 6 6 6 7 7 7 7 6 6 6 7 8 9 8 7 8 9 9 8 8 7 8 10 7 10 9 8 8 9 9 11 12 7 6 6 6 5 6 6 7 8 8 8 8 8 7 7 7 8 8 7 7 7 7 6 5 5 5 4 4 3 3 4 4 5 4
2 2 2 3 3 2 3 2 2 3 3 3 4 4 4 4 5 5 5 6 6 7 7 7 7 7 7 8 7 6 7 8 8 9 7 8 9 8 7 6 6 5 6 7 9 8 9 8 9 11 14 11 8 7 6 6 6 6 6 6 6 5 5 5 5 6 7 7 7 8 7 6 6 6 6 5 4 4 3 3 4 4 4 5 5
2 2 3 3 3 3 3 3 3 3 3 4 4 5 5 5 5 5 5 7 7 6 7 7 7 8 7 8 8 8 7 7 8 9 9 9 8 8 7 5 5 6 5 5 8 8 7 8 8 10 13 10 7 7 7 6 6 6 6 5 5 5 4 5 6 6 6 7 8 7 7 6 6 6 7 6 5 4 4 4 4 5 5 5 5
2 2 3 3 3 3 3 3 4 5 4 4 4 5 5 5 5 6 6 6 6 7 8 7 8 8 8 8 8 8 8 8 8 8 8 9 9 8 6 4 5 6 4 5 5 6 6 6 7 6 8 10 8 8 7 7 6 6 6 6 5 5 6 7 5 5 5 8 8 7 7 7 6 6 6 7 6 5 4 4 3 4 4 5 5
2 2 3 3 3 4 4 4 4 4 4 5 6 6 5 6 7 7 7 7 8 8 8 9 9 9 9 9 8 8 8 8 9 9 9 9 9 8 6 7 9 6 5 5 5 6 7 7 6 7 7 7 7 7 7 7 7 7 7 6 7 12 12 12 7 6 8 6 6 6 6 7 7 7 7 6 6 5 5 4 4 4 4 4 4
2 2 3 4 4 5 5 5 6 6 6 6 6 7 7 6 7 6 7 7 7 7 7 7 8 9 9 9 8 8 9 9 10 9 9 9 9 8 6 5 6 6 5 5 6 6 6 6 6 7 7 7 7 7 7 7 7 7 6 7 12 16 15 15 13 10 8 6 7 7 6 6 7 7 7 7 6 6 5 5 4 4 4 4 4
3 3 4 4 4 5 4 5 5 5 5 6 6 6 6 6 6 6 6 7 7 7 8 7 8 8 9 8 8 9 9 9 10 9 10 9 9 7 8 9 6 6 5 4 4 5 5 6 6 7 7 7 7 7 7 7 6 6 9 13 15 15 15 14 10 14 15 9 6 7 6 7 7 8 7 6 5 6 6 5 5 4 4 4 4
Wind_Direction
236 238 236 236 233 227 220 213 211 209 210 210 210 206 206 198 197 193 171 184 173 176 174 172 174 166 160 152 145 148 158 162 156 151 160 154 149 140 151 154 141 135 135 136 133 140 143 139 136 130 134 129 123 124 123 120 123 126 146 189 183 186 229 246 256 278 289 240 294 310 316 322 317 320 317 319 321 326 323 320 318 320 315 316 314
229 229 229 232 232 231 226 215 212 209 208 207 210 206 203 198 191 172 182 182 175 176 170 162 159 160 152 155 156 157 162 155 144 150 155 146 139 143 152 148 138 133 137 141 151 142 139 135 132 128 119 116 119 123 126 137 143 151 184 209 201 187 193 246 257 269 293 302 306 312 313 327 311 325 327 326 326 327 326 325 324 323 318 316 317
251 242 238 235 233 234 233 221 207 215 214 214 214 209 206 192 173 173 171 161 167 167 173 167 157 155 150 159 163 165 158 142 145 147 145 145 151 157 154 147 143 145 148 149 149 145 139 134 135 131 126 120 120 120 127 137 153 175 186 201 208 194 216 244 278 282 291 303 300 316 324 323 318 322 326 322 318 321 320 326 330 330 324 320 315
244 241 241 239 237 233 229 218 214 210 214 211 209 194 165 154 152 160 155 154 161 163 163 168 156 157 159 160 166 162 140 132 139 145 151 158 155 152 150 143 140 146 145 145 147 150 144 133 138 142 139 130 135 137 144 149 163 172 179 207 210 221 236 230 258 284 294 306 322 322 317 316 319 318 321 320 322 324 322 320 328 327 326 323 317
230 233 236 235 229 223 215 189 209 212 212 196 190 164 164 156 159 159 158 172 179 169 167 176 174 160 161 162 160 157 154 145 149 155 157 154 147 143 143 138 136 134 134 137 144 140 142 142 146 149 149 137 142 149 151 158 167 176 193 197 236 224 233 242 258 274 290 302 309 312 308 307 311 319 337 338 330 326 324 327 331 326 330 325 320
205 208 199 184 201 211 211 206 211 208 197 189 181 177 170 172 173 175 174 169 164 173 171 164 173 169 160 163 161 163 156 153 154 153 151 144 135 130 127 126 124 124 128 131 138 133 137 140 147 152 155 152 149 147 150 163 164 171 187 210 209 251 247 251 271 282 293 295 306 313 325 326 328 334 350 345 336 333 333 333 324 321 334 331 325
196 193 171 209 187 201 185 200 204 197 194 187 174 170 176 173 170 170 169 161 161 160 162 163 166 168 161 157 163 166 146 145 145 140 139 139 138 132 125 123 125 123 122 126 125 127 131 139 149 156 153 149 148 153 157 160 166 174 176 179 218 250 256 279 296 304 309 311 306 308 317 324 330 333 347 343 335 335 339 336 333 334 336 337 325
188 190 146 172 191 190 213 211 200 191 157 140 148 150 148 153 155 142 149 157 167 170 168 169 165 167 171 167 161 156 144 137 138 138 135 135 134 133 132 132 131 125 127 129 130 129 133 140 150 148 142 148 151 151 157 159 161 172 163 181 201 230 259 297 305 315 323 320 318 322 326 324 331 339 335 340 340 343 357 337 322 323 326 329 330
194 194 188 182 196 199 155 158 131 107 134 138 145 150 152 148 141 146 157 158 163 169 162 159 148 147 140 141 150 141 139 148 144 145 140 139 136 137 137 137 137 136 135 135 135 137 139 139 143 142 126 111 111 123 130 138 170 163 161 171 197 187 286 299 301 326 329 324 316 324 324 329 338 340 344 350 350 336 328 328 315 316 319 317 321
198 195 193 200 179 169 163 148 140 133 143 156 160 155 153 154 155 157 159 155 148 156 162 154 153 158 152 142 136 135 138 116 151 151 152 147 145 138 134 139 140 142 143 143 143 145 147 141 119 112 120 126 128 129 134 141 127 116 151 175 188 161 191 249 300 343 331 318 324 330 329 330 332 337 332 333 332 325 322 324 320 321 323 317 310
199 199 204 192 168 163 159 157 149 160 157 143 147 153 154 156 158 154 153 154 151 147 146 146 150 157 155 154 149 144 140 154 157 153 147 149 146 143 146 146 145 146 150 152 152 152 150 140 136 138 136 135 139 144 143 145 139 131 120 84 59 182 168 206 287 312 313 307 311 315 314 312 317 327 324 327 324 325 321 321 321 324 329 332 325
194 196 201 178 172 166 164 154 156 163 161 163 161 159 148 154 160 157 153 149 129 124 146 153 143 153 141 139 142 151 152 159 159 156 153 150 148 145 144 144 149 151 157 156 153 155 153 150 148 153 164 156 149 153 158 160 158 152 147 141 138 117 160 208 236 265 272 282 290 292 301 298 314 320 321 323 323 320 318 318 318 321 321 319 314
193 191 178 177 173 173 165 168 170 166 181 170 158 152 158 155 154 154 160 152 144 155 161 156 162 146 152 154 152 151 149 160 157 156 157 154 149 147 145 147 147 154 158 158 157 158 155 153 152 157 148 152 157 157 159 173 184 164 151 159 153 153 209 222 245 251 249 260 267 279 282 306 306 307 316 320 321 313 318 317 317 315 310 305 304
193 187 177 176 176 177 174 173 176 177 159 154 156 160 167 173 170 165 146 150 162 160 166 165 161 162 165 155 148 150 151 163 158 157 158 157 154 148 142 143 143 152 158 159 159 161 161 160 158 157 159 167 169 170 174 172 173 175 178 184 173 179 202 218 240 258 258 253 261 268 284 297 293 301 313 319 316 314 317 311 315 311 307 299 301
194 187 183 179 176 175 176 179 179 173 172 168 167 175 179 169 165 164 164 168 164 162 162 159 161 160 155 150 147 153 154 159 158 158 160 161 154 137 136 132 140 150 153 156 159 160 163 163 162 158 159 169 177 182 177 176 173 166 166 180 193 196 215 219 215 219 223 247 259 274 284 290 294 303 306 309 304 302 304 302 306 304 301 300 296
197 186 186 182 179 180 179 183 181 176 174 174 176 181 180 177 174 161 160 160 138 118 138 149 161 158 152 146 141 146 152 161 158 159 158 156 148 140 143 147 149 151 151 157 158 160 163 163 159 159 164 174 185 194 183 167 166 169 172 182 198 221 232 213 237 234 252 286 288 286 286 289 295 294 296 298 301 301 303 301 299 305 311 311 309
198 189 186 183 188 189 193 191 184 177 177 179 186 185 181 174 157 160 150 156 154 166 162 161 163 162 162 159 152 150 155 166 162 160 158 155 153 150 147 147 148 152 157 158 159 162 167 168 165 161 167 177 186 198 177 171 163 173 177 184 195 231 236 210 212 223 268 294 299 293 288 289 292 295 295 296 297 305 306 304 309 323 315 310 312
198 193 192 189 195 195 195 183 181 181 178 191 191 189 170 161 163 171 167 161 165 165 158 156 160 166 166 167 163 148 159 167 165 165 166 168 163 151 155 148 147 152 152 161 163 166 169 172 169 164 170 175 189 191 171 170 170 173 180 178 193 213 215 197 217 246 268 288 282 281 291 301 305 300 293 296 301 305 299 293 305 310 299 301 305
196 194 195 195 194 191 192 188 183 180 186 191 185 181 178 176 160 164 154 142 150 152 158 162 163 170 180 168 165 159 155 169 172 172 172 172 163 152 150 146 150 160 159 163 166 163 166 181 184 181 180 177 183 177 172 173 173 177 177 176 196 207 209 198 233 268 286 294 269 276 280 293 294 295 296 302 298 292 285 287 295 296 295 298 304
202 201 201 198 193 190 186 185 188 182 188 184 178 179 148 147 156 160 164 167 162 167 169 169 160 167 165 178 175 174 162 170 178 177 177 175 170 155 155 153 164 162 167 166 164 174 177 178 193 199 191 188 181 175 176 180 180 178 176 187 198 209 196 177 209 277 282 282 288 285 285 305 298 295 288 289 293 282 279 282 284 287 289 292 297
191 195 196 190 187 195 195 191 189 191 187 185 169 164 157 151 147 158 157 156 151 160 158 146 158 151 168 178 180 181 179 173 182 180 179 178 175 169 169 173 156 159 164 167 175 175 178 185 186 198 196 188 178 178 178 181 181 173 190 191 204 199 154 169 209 253 248 250 255 257 265 278 274 269 266 269 277 277 277 284 283 281 284 287 294
174 175 182 188 185 180 184 177 181 174 160 143 129 146 149 137 159 167 162 158 160 164 161 166 172 173 177 187 189 189 189 193 177 184 183 182 183 182 173 181 170 152 155 169 175 182 184 179 183 191 192 185 179 179 177 178 179 176 192 181 169 149 144 173 202 224 231 234 236 242 243 253 257 263 271 271 268 273 282 283 280 279 280 280 285
171 172 171 181 177 177 177 175 166 146 145 151 158 146 145 150 156 151 160 152 157 158 172 172 171 174 176 192 193 197 191 191 189 188 189 188 188 189 187 170 167 174 166 173 186 180 174 174 175 181 185 181 178 176 176 173 171 187 172 165 159 152 150 189 213 230 229 225 225 229 230 238 248 259 272 273 281 287 285 283 280 278 278 276 283
158 151 160 163 153 163 165 157 146 148 152 148 148 144 152 149 151 169 166 167 172 176 182 179 179 179 184 188 192 195 195 192 192 199 196 193 193 192 191 182 182 179 185 188 173 167 167 175 170 176 179 178 175 173 174 172 182 170 166 153 153 156 164 183 213 218 224 218 217 222 222 231 246 250 258 287 291 296 289 276 265 265 267 280 293
125 155 168 165 164 147 139 158 152 153 155 159 159 160 157 156 167 173 167 182 182 182 183 178 188 187 189 190 189 188 190 192 197 200 199 198 198 194 195 192 191 181 187 179 152 166 167 164 164 176 179 176 172 169 168 174 167 161 152 156 157 166 180 200 204 212 217 216 221 231 242 238 251 261 277 290 292 282 265 263 268 265 262 284 285
157 157 159 159 150 140 140 143 147 150 157 172 175 168 164 173 177 173 181 192 190 187 182 180 189 189 195 193 188 184 184 192 197 194 197 200 202 202 197 194 189 190 181 165 159 162 164 163 170 177 178 173 165 163 163 168 162 156 157 159 166 171 183 193 207 211 223 231 241 250 260 276 274 285 290 275 269 271 279 284 287 279 282 283 294
144 140 153 153 138 156 161 165 161 154 170 170 181 178 174 180 180 178 187 191 191 193 185 181 190 193 199 195 186 180 185 191 194 193 193 196 196 194 196 198 191 185 171 171 165 171 169 167 176 180 184 173 161 148 139 148 157 160 161 172 173 172 184 194 198 208 240 251 261 267 276 288 294 286 282 290 279 274 280 285 282 286 284 284 276
159 158 151 160 166 174 185 159 159 166 176 178 179 183 184 190 195 194 190 190 187 192 188 189 196 195 197 191 178 182 191 195 198 196 195 190 189 189 192 186 189 191 180 172 171 168 160 163 169 171 170 166 152 133 147 158 160 167 170 165 175 178 184 187 208 214 225 240 262 269 275 276 280 289 297 285 275 281 287 286 291 289 287 276 267
102 100 140 148 171 169 185 165 188 179 174 189 203 194 188 193 205 219 217 211 199 189 187 199 202 203 193 183 177 187 196 205 214 201 191 186 182 178 185 187 187 191 179 158 138 137 139 160 149 167 183 170 165 170 166 169 175 167 158 182 181 188 189 189 189 200 201 225 241 251 271 277 278 284 282 277 278 287 290 290 301 301 303 300 282
131 147 159 167 156 174 188 184 190 192 183 193 202 229 269 251 242 221 218 214 236 253 246 224 213 202 209 218 196 192 192 223 224 192 196 196 197 199 193 176 178 158 165 171 158 143 173 172 183 188 185 182 178 177 177 177 177 179 179 186 191 194 195 193 197 192 210 228 237 242 252 266 278 280 278 277 285 289 287 288 299 309 309 322 317
161 153 166 190 176 184 181 184 187 197 200 199 203 211 219 220 232 243 261 198 197 217 229 243 230 223 222 231 214 241 272 341 165 198 203 205 205 203 199 196 190 180 171 158 168 179 175 186 195 195 199 188 182 181 167 172 183 178 174 172 184 190 196 196 195 184 209 226 237 241 246 255 267 272 271 279 284 287 284 285 296 309 316 314 317
174 174 165 155 154 198 204 197 182 199 211 205 213 214 218 232 228 217 225 229 225 225 229 230 228 224 223 227 223 217 226 230 194 198 204 209 209 207 204 199 196 187 185 171 160 186 190 192 186 194 192 193 194 162 164 177 178 176 166 169 185 182 185 192 179 181 211 226 234 237 238 240 254 259 265 270 276 278 272 278 296 312 321 319 311
134 111 115 145 179 195 215 208 207 205 209 204 214 212 220 225 234 232 202 216 227 230 234 235 233 231 230 226 215 210 201 204 212 209 208 210 211 210 206 204 198 191 182 181 200 194 200 202 200 196 190 198 182 173 177 174 173 177 181 176 173 177 182 173 165 194 206 215 222 237 237 241 248 256 258 261 265 271 272 273 285 302 308 310 299
97 125 163 170 188 205 205 218 212 217 215 213 213 210 220 226 236 240 239 209 218 238 240 238 236 232 232 229 223 216 212 209 212 212 209 209 210 210 207 206 202 197 194 196 192 204 197 205 211 205 205 192 180 166 170 173 174 173 176 184 176 165 166 163 176 192 198 207 215 223 232 238 243 248 256 257 259 259 261 260 273 289 300 302 296
150 131 144 176 201 209 212 216 217 219 215 214 215 215 225 225 235 243 246 246 242 233 229 224 223 225 230 231 228 221 216 215 213 212 208 206 206 207 203 204 205 207 209 211 210 212 204 205 206 196 196 197 195 181 183 170 170 178 180 176 171 167 166 177 185 186 194 200 207 216 218 229 237 245 245 251 251 253 251 252 258 269 285 289 291
157 226 167 178 212 228 227 229 225 225 225 224 223 223 223 224 226 235 240 248 255 260 262 239 211 209 221 232 230 227 224 220 219 215 211 208 206 198 200 207 205 208 208 204 207 217 218 209 193 201 195 198 187 194 195 180 185 181 179 172 170 168 170 174 181 187 196 199 203 207 214 228 232 233 244 248 246 247 250 249 256 260 267 274 286
311 276 277 228 233 260 263 257 247 249 250 247 234 230 226 227 231 236 239 242 242 247 250 253 194 228 222 230 226 232 231 227 224 219 212 208 204 201 209 207 208 204 205 202 202 207 214 215 200 196 185 190 192 188 182 192 183 175 174 175 164 163 174 172 177 179 189 198 204 204 209 220 228 232 235 240 246 244 241 241 242 249 249 266 275
357 349 341 13 333 292 264 260 250 255 250 248 246 244 244 238 236 235 243 246 246 250 251 249 234 235 225 224 175 200 226 226 226 225 218 212 209 210 215 218 213 208 212 207 205 207 216 216 205 194 193 189 191 186 185 185 176 173 177 175 176 179 169 171 185 190 195 199 205 207 209 216 221 227 232 239 242 244 244 241 237 243 260 249 248
11 25 359 308 273 274 271 266 255 246 253 249 253 247 249 251 248 246 247 251 251 249 252 252 244 236 236 202 174 194 194 217 213 217 213 212 213 214 215 206 209 215 213 208 202 209 219 217 204 198 193 195 193 184 181 179 171 176 173 172 176 173 181 189 190 191 193 200 200 207 208 212 216 223 226 236 244 243 247 245 244 242 252 257 259
356 334 356 305 272 258 262 271 277 276 266 268 262 251 254 251 251 251 250 251 251 250 251 248 246 239 227 187 195 194 208 217 216 215 210 209 208 212 213 212 208 214 214 211 211 212 220 220 197 196 199 196 189 184 183 175 174 172 171 177 176 179 187 185 186 184 194 195 198 203 204 207 212 215 230 236 241 245 244 245 244 244 248 258 263
354 343 314 296 315 302 281 277 271 268 279 266 270 264 258 255 257 258 259 256 257 259 254 251 252 245 221 203 207 202 220 223 218 220 219 216 214 214 216 215 209 215 212 212 216 214 218 218 199 197 198 193 186 180 178 171 166 167 177 177 180 187 184 186 182 189 190 193 199 203 204 202 204 208 221 232 242 249 249 250 248 246 245 251 256
342 323 320 316 321 295 297 290 285 286 275 270 269 263 265 260 258 257 257 258 260 259 261 261 256 251 214 195 217 216 225 238 233 229 224 219 221 224 224 224 217 215 216 216 215 215 216 219 211 191 194 187 177 179 163 172 174 174 174 179 185 185 187 187 186 188 191 193 194 199 201 204 200 210 219 230 241 245 245 244 247 249 254 253 254
325 319 320 322 319 307 307 300 301 288 269 262 257 260 262 266 266 263 261 258 257 259 264 265 266 261 245 213 219 221 229 237 240 236 238 227 225 225 225 225 218 217 222 226 227 225 225 226 217 203 199 186 177 173 175 180 174 172 174 176 182 182 185 181 181 184 191 193 192 196 193 198 203 210 211 215 229 238 242 240 247 249 254 253 256
329 324 320 314 311 306 290 289 283 275 270 274 277 274 269 267 266 260 263 263 261 259 260 262 267 265 264 219 213 223 232 236 237 234 233 233 234 227 226 220 219 228 228 231 226 222 223 225 224 218 208 207 190 177 178 171 168 169 173 171 177 181 181 183 184 181 183 189 191 190 194 197 201 203 207 212 219 229 235 231 235 240 247 256 257
329 328 319 313 306 294 290 278 277 276 283 279 270 266 260 260 262 265 264 265 266 264 262 265 265 266 263 252 223 225 233 236 237 236 237 237 239 238 234 225 223 229 223 231 228 219 223 223 222 217 209 200 188 180 181 170 178 175 177 171 175 182 189 187 184 175 171 180 190 187 190 192 199 202 203 207 214 222 231 232 234 242 246 251 252
327 313 308 301 300 294 293 289 286 285 282 285 283 284 278 270 266 266 265 268 269 269 271 269 267 263 260 260 252 236 235 239 244 244 242 242 244 244 239 233 229 221 218 219 223 218 222 218 216 216 206 189 177 178 182 176 178 183 179 186 183 175 167 163 159 165 176 181 195 198 194 195 198 200 201 202 208 213 221 233 243 243 245 249 253
308 298 298 296 297 297 294 295 297 293 290 281 280 281 278 277 277 273 269 266 271 274 275 273 272 269 267 262 259 255 246 241 244 246 245 244 247 249 247 234 226 228 223 213 218 207 203 209 213 216 215 199 172 171 176 177 178 180 182 179 177 168 162 160 169 176 174 187 193 194 194 195 199 201 202 206 213 213 216 224 226 235 245 246 249
308 300 294 292 294 291 290 292 291 289 280 280 278 280 280 283 281 279 282 281 274 273 274 271 270 269 269 268 266 265 261 258 253 251 253 255 251 246 240 231 229 229 216 209 204 199 197 203 204 200 196 197 181 179 177 174 174 171 177 180 177 172 165 158 167 173 186 196 198 198 201 203 203 201 199 201 207 212 211 223 229 239 240 243 245
307 301 300 296 294 292 294 296 298 293 294 295 294 288 286 283 283 285 282 281 280 279 277 279 279 279 276 273 271 269 267 263 261 260 260 258 257 251 241 237 244 228 219 221 207 198 202 203 193 199 193 189 186 178 175 168 173 176 176 177 177 176 172 176 179 187 189 189 200 204 206 208 205 206 202 201 202 208 212 219 227 237 248 252 250
305 298 296 300 295 296 296 296 293 293 294 291 288 288 287 285 283 281 280 281 281 279 279 276 277 277 279 277 276 274 272 271 272 265 261 260 260 259 253 236 223 220 222 218 212 197 200 199 194 195 193 191 185 182 175 176 177 176 174 176 182 188 190 192 194 184 179 201 201 208 205 212 209 206 210 208 208 207 212 219 226 233 239 244 246
314 311 303 299 296 295 294 292 289 290 288 287 289 288 290 288 287 286 286 285 284 286 285 283 283 283 281 278 279 277 276 274 274 272 273 269 264 258 261 258 228 226 222 218 208 204 193 195 193 193 188 187 184 184 180 176 175 174 181 186 188 187 187 188 194 201 197 193 198 207 210 215 213 214 211 205 201 207 214 216 221 223 234 238 243